Regional Weather Roundup
Issued by NWS Grand Forks, ND

Home | Current Version | Previous Version | Text Only | Print | Product List | Glossary On
Versions: 1 2 3 4 5 6 7 8 9 10 11 12 13 14 15 16 17 18 19 20 21 22 23 24 25 26 27 28 29 30 31 32 33 34 35 36 37 38 39 40 41 42 43 44 45 46 47 48 49 50
000
ASUS43 KFGF 010631
RWRFGF
PRAIRIE TO PINES  WEATHER ROUNDUP
NATIONAL WEATHER SERVICE EASTERN NORTH DAKOTA/GRAND FORKS ND
100 AM CDT WED OCT 01 2014

 **SATELLITE DATA USED TO AUGMENT SKY COVER AT AUTOMATED STATIONS**
 *****  WEATHER ACROSS EASTERN NORTH DAKOTA  *****

CITY           SKY/WX    TMP DP  RH WIND       PRES   REMARKS
GRAND FORKS    CLOUDY    59  51  75 SE23G32   29.52F
6HR MIN TEMP:  57; 6HR MAX TEMP:  60;

GRAND FRKS AFB CLOUDY    60  56  87 S22G29    29.51F
GRAND FRKS NWS   N/A     57 N/A N/A SE26        N/A
DEVILS LAKE    CLOUDY    57  52  82 S24       29.38F
6HR MIN TEMP:  54; 6HR MAX TEMP:  57; 6HR PCP:  0.01;

FARGO          CLOUDY    62  56  80 S23G35    29.57F
WAHPETON ARPT  PTCLDY    61  54  77 S18G26    29.63S
$$

 ***** WEATHER ACROSS CENTRAL AND WESTERN NORTH DAKOTA  *****

CITY           SKY/WX    TMP DP  RH WIND       PRES   REMARKS
BISMARCK       CLOUDY    53  51  93 SW13      29.49R
6HR MIN TEMP:  53; 6HR MAX TEMP:  56; 6HR PCP:  0.07;

MINOT          CLOUDY    51  50  96 W9        29.40S FOG
6HR MIN TEMP:  51; 6HR MAX TEMP:  52; 6HR PCP:  0.34;

JAMESTOWN      CLOUDY    59  53  80 S18G30    29.47R
6HR MIN TEMP:  52; 6HR MAX TEMP:  60;

MINOT AFB      DRIZZLE   51  51 100 NW10      29.39F FOG
GARRISON         N/A     51  50  96 W9        29.43R
WILLISTON      LGT RAIN  52  50  93 SW6       29.49S
6HR MIN TEMP:  51; 6HR MAX TEMP:  53; 6HR PCP:  0.08;

DICKINSON      CLOUDY    54  51  90 W16       29.52S
6HR MIN TEMP:  51; 6HR MAX TEMP:  53; 6HR PCP:  0.03;

HETTINGER      CLOUDY    53  51  93 W15       29.58R
6HR MIN TEMP:  51; 6HR MAX TEMP:  54; 6HR PCP: TRACE;

$$

 *****  OTHER AIRPORT OBSERVATIONS IN OUR AREA  *****

CITY           SKY/WX    TMP DP  RH WIND       PRES   REMARKS
WALHALLA       FAIR      57  54  88 SE18G26   29.49F
GRAFTON AIRPOR CLOUDY    57  50  77 SE22G31   29.51F
VALLEY CITY AR CLOUDY    59  59 100 S22G29    29.51S
CANDO          CLOUDY    55  54  94 SE16G22   29.37F
CAVALIER APRT  CLOUDY    57  50  77 SE14G23   29.50F
GWINNER        PTCLDY    63  55  77 S18       29.58S
SHEYENNE NWR     N/A     61  58  90 S17       29.95
ROLLA          CLOUDY    50  50 100 E18       29.40F FOG
 ***** THE ABOVE OBSERVATIONS ARE NON NWS ARE NOT QUALITY
       CONTROLLED AND MAY MIS-REPORT RAIN FOR SNOW...
$$

  *****  WEATHER ACROSS NORTHERN MINNESOTA  *****

CITY           SKY/WX    TMP DP  RH WIND       PRES   REMARKS
FLAG ISLAND    CLOUDY    54  45  71 SE17G26   29.70F
WARROAD        CLOUDY    52  46  82 SE16      29.68F
ROSEAU         CLOUDY    54  46  76 SE14      29.65F
HALLOCK        CLOUDY    57  48  72 SE20G28   29.54F
THF RVR FALLS  CLOUDY    57  48  72 SE21G28   29.61F
6HR MIN TEMP:  55; 6HR MAX TEMP:  57;

BAUDETTE       CLOUDY    49  42  77 SE14G23   29.73F
6HR MIN TEMP:  49; 6HR MAX TEMP:  54;

WASKISH        CLOUDY    52  45  76 SE13G21   29.73F
CROOKSTON      CLOUDY    59  52  77 S24G35    29.57F
STEPHEN NDAWN    N/A     59  52  77 SE20        N/A
GREENBUSH NDAW   N/A     55  46  71 SE18        N/A
$$
  *****  WEATHER ACROSS CENTRAL AND WEST MINNESOTA  *****

CITY           SKY/WX    TMP DP  RH WIND       PRES   REMARKS
FOSSTON        MOCLDY    54  46  76 SE16G25   29.66F
BEMIDJI        CLOUDY    50  45  82 SE16      29.73F
PARK RAPIDS    CLOUDY    52  45  77 SE17      29.74F
6HR MIN TEMP:  51; 6HR MAX TEMP:  54;

ELBOW LAKE     CLOUDY    58  55  88 S20G32    29.69S
6HR MIN TEMP:  55; 6HR MAX TEMP:  59;

WADENA         CLEAR     50  45  81 SE15G22   29.73F
DETROIT LAKES  CLOUDY    54  48  82 SE17G24   29.68F
MOORHEAD       NOT AVBL
FERGUS FALLS   CLOUDY    61  54  77 S23G31    29.68S
MORRIS MN      PTCLDY    59  55  88 S17       29.71R
STAPLES        CLEAR     48  45  87 SE10G17   29.77S
$$
  *****  WEATHER ELSEWHERE ACROSS MINNESOTA  *****

CITY           SKY/WX    TMP DP  RH WIND       PRES   REMARKS
DULUTH         MOCLDY    48  45  89 SE9       29.89F
6HR MIN TEMP:  45; 6HR MAX TEMP:  48;

INTRNTL FALLS  MOCLDY    45  40  82 SE12G17   29.83F
6HR MIN TEMP:  45; 6HR MAX TEMP:  51;

ELY            CLOUDY    43  39  87 S3        29.92R
CLOQUET        CLOUDY    46  45  93 SE6       29.90R
WHEATON        CLEAR     57  55  94 SE16G22   29.67F
BRAINERD       MOCLDY    49  44  83 SE9       29.81F
6HR MIN TEMP:  49; 6HR MAX TEMP:  53;

HIBBING        CLOUDY    47  43  86 SE8       29.89F
6HR MIN TEMP:  43; 6HR MAX TEMP:  47;

ALEXANDRIA     MOCLDY    53  49  86 SE12      29.75F
6HR MIN TEMP:  51; 6HR MAX TEMP:  54;

SAINT CLOUD    CLOUDY    54  47  77 SE12      29.82S
6HR MIN TEMP:  53; 6HR MAX TEMP:  56; 6HR PCP:  0.01;

MINNEAPOLIS    MOCLDY    52  45  77 SE15      29.88S
6HR MIN TEMP:  52; 6HR MAX TEMP:  55;

$$

  *****  WEATHER ACROSS SOUTH DAKOTA  *****

CITY           SKY/WX    TMP DP  RH WIND       PRES   REMARKS
SIOUX FALLS    CLOUDY    62  59  90 S10       29.75F
6HR MIN TEMP:  62; 6HR MAX TEMP:  67;

BROOKINGS      NOT AVBL
WATERTOWN      PTCLDY    61  59  93 S15G25    29.69S
6HR MIN TEMP:  61; 6HR MAX TEMP:  63; 6HR PCP:  0.06;

HURON          MOCLDY    61  59  93 S10       29.67S
6HR MIN TEMP:  61; 6HR MAX TEMP:  73;

SISSETON         N/A     64  60  87 S18G28    29.63S
ABERDEEN       CLEAR     60  51  72 S14G23    29.61R
6HR MIN TEMP:  60; 6HR MAX TEMP:  69;

MITCHELL       PTCLDY    63  61  93 S16       29.70S
PIERRE         MOCLDY    57  49  74 W8        29.63F
6HR MIN TEMP:  55; 6HR MAX TEMP:  65;

MOBRIDGE       PTCLDY    58  52  80 SW12      29.57R
RAPID CITY     MOCLDY    49  44  83 CALM      29.72R
6HR MIN TEMP:  49; 6HR MAX TEMP:  65;

$$

  *****  SOME WEATHER IN NEARBY STATES *****

CITY           SKY/WX    TMP DP  RH WIND       PRES   REMARKS
GLASGOW MT     CLOUDY    54  48  80 NW18G28   29.63R
6HR MIN TEMP:  54; 6HR MAX TEMP:  63; 6HR PCP:  0.12;

GREAT FALLS MT MOCLDY    43  40  89 NW8       29.91R
6HR MIN TEMP:  43; 6HR MAX TEMP:  51; 6HR PCP:  0.01;

CHEYENNE WY    CLOUDY    48  37  65 W9        29.89S
6HR MIN TEMP:  48; 6HR MAX TEMP:  56;

SCOTTSBLUFF NE CLOUDY    57  45  64 W9        29.79S
6HR MIN TEMP:  57; 6HR MAX TEMP:  65;

OMAHA NE       TSTM      65  61  87 SE17      29.77R FOG
6HR MIN TEMP:  64; 6HR MAX TEMP:  66; 6HR PCP:  0.85;

DES MOINES IA  CLOUDY    65  56  72 SE8       29.83F
6HR MIN TEMP:  65; 6HR MAX TEMP:  69; 6HR PCP: TRACE;

DAVENPORT IA   NOT AVBL
CHICAGO IL     CLOUDY    55  46  71 E8        30.01S
6HR MIN TEMP:  52; 6HR MAX TEMP:  55; 6HR PCP: TRACE;

EAU CLAIRE WI  CLOUDY    47  41  80 S8        29.97R
6HR MIN TEMP:  47; 6HR MAX TEMP:  52;

LA CROSSE WI   CLOUDY    49  43  80 E6        29.96F
6HR MIN TEMP:  49; 6HR MAX TEMP:  53;

$$

  *****  SOME NATIONAL WEATHER *****

CITY           SKY/WX    TMP DP  RH WIND       PRES   REMARKS
LA GUARDIA NY  CLOUDY    63  59  88 NE13      29.99R
6HR MIN TEMP:  62; 6HR MAX TEMP:  66; 6HR PCP:  0.04;

RALEIGH NC     PTCLDY    59  57  93 CALM      29.94S
6HR MIN TEMP:  58; 6HR MAX TEMP:  66;

ATLANTA GA     MOCLDY    67  64  90 CALM      29.94S
6HR MIN TEMP:  66; 6HR MAX TEMP:  79;

NEW ORLEANS LA PTCLDY    76  71  85 SE5       29.88S
6HR MIN TEMP:  76; 6HR MAX TEMP:  81;

OKLAHOMA CITY  MOCLDY    74  65  73 SE14      29.76S
6HR MIN TEMP:  73; 6HR MAX TEMP:  83;

ALBUQUERQUE NM CLEAR     60  33  36 CALM      29.96S
6HR MIN TEMP:  58; 6HR MAX TEMP:  75;

SALT LAKE CITY CLOUDY    53  49  86 NW3       29.94S THUNDER
6HR MIN TEMP:  51; 6HR MAX TEMP:  60; 6HR PCP: TRACE;

LOS ANGELES CA CLEAR     67  63  87 S6        29.77S



USA.gov is the U.S. government's official web portal to all federal, state and local government web resources and services.